Regional Weather Roundup
Issued by NWS Wakefield, VA

Home | Current Version | Previous Version | Graphics & Text | Print | Product List | Glossary On
Versions: 1 2 3 4 5 6 7 8 9 10 11 12 13 14 15 16 17 18 19 20 21 22 23 24 25 26 27
000
ASUS41 KAKQ 240715
RWRAKQ

REGIONAL WEATHER ROUNDUP
NATIONAL WEATHER SERVICE WAKEFIELD VA
300 AM EDT THU MAY 24 2018

Note: "fair" indicates few or no clouds below 12,000 feet with no
significant weather and/or obstructions to visibility. * = Denotes
station may not report precipitation (e.g., rain,snow,etc.),
thunder or fog.

VAZ042-051-052>054-056-240800-
NORTHERN VIRGINIA

CITY           SKY/WX    TMP DP  RH WIND       PRES   REMARKS
WASH NATIONAL  FAIR      65  61  87 S6        30.11S
DULLES         FAIR      58  56  93 CALM      30.13R
FORT BELVOIR   FAIR      58  57  96 CALM      30.11S
QUANTICO       FAIR      64  58  80 CALM      30.12S
FREDERICKSBRG* FAIR      61  58  90 CALM      30.12S
STAFFORD*      FAIR      59  59 100 NW3       30.16R
WARRENTON      FAIR      56  53  89 CALM      30.13S
CULPEPER*      FAIR      57  55  94 CALM      30.14S
MANASSAS*      FAIR      56  56 100 CALM      30.13S
LEESBURG*      FAIR      66  59  77 N8        30.13S
WINCHESTER     FAIR      54  54 100 CALM      30.18R
FRONT ROYAL*   FAIR      59  55  88 CALM      30.16R
LURAY*         FAIR      55  55 100 CALM      30.18S
$$

VAZ048-049-060>072-079>083-240800-
CENTRAL AND SOUTH CENTRAL VIRGINIA

CITY           SKY/WX    TMP DP  RH WIND       PRES   REMARKS
RICHMOND       FAIR      65  58  78 N7        30.11R
CHESTERFIELD*  FAIR      63  60  90 NW3       30.12S
PETERSBURG*    CLOUDY    64  61  90 CALM      30.13R
HANOVER        FAIR      62  59  90 CALM      30.13S
TAPPAHANNOCK*  FAIR      62  60  94 CALM      30.12S
QUINTON*       FAIR      62  62  98 CALM      30.11S
CHARLOTTSVILLE FAIR      64  58  80 CALM      30.14F
GORDONSVILLE*  FAIR      58  58 100 CALM      30.13S
ORANGE*        FAIR      57  55  94 CALM      30.14S
LOUISA*        FAIR      59  57  92 N6        30.18S
BUMPASS*       FAIR      60  59  96 CALM      30.13S
FARMVILLE*     CLOUDY   N/A N/A N/A CALM      30.12F
CREWE*         CLOUDY    64  64 100 CALM      30.13S
FORT PICKETT*  CLOUDY    67  65  92 N3        30.13S
CHASE CITY*    CLOUDY    70  65  84 NE3       30.13S
CLARKSVILLE*   CLOUDY    70  70 100 NE3       30.11S
SOUTH HILL*    MOCLDY    68  68 100 CALM      30.17S
LAWRENCEVILLE* FAIR      68  65  89 N3        30.12R
EMPORIA*       FAIR      66  64  94 NW5       30.13R
$$

VAZ088>098-240800-
SOUTHEAST VIRGINIA

CITY           SKY/WX    TMP DP  RH WIND       PRES   REMARKS
NORFOLK        FAIR      70  68  93 CALM      30.09R
VIRGINIA BEACH FAIR      64  63  96 VRB3      30.08R
NORFOLK NAVAL  FAIR      69  62  78 CALM      30.10R
WEST POINT*    FAIR      64  60  87 CALM      30.12S
SALUDA*        FAIR      64  64 100 CALM      30.10R
NEWPORT NEWS   FAIR      62  59  90 CALM      30.10R
LANGLEY AFB    FAIR      65  63  91 N5        30.10R
FORT EUSTIS    FAIR      68  63  82 NW5       30.08R
WILLIAMSBURG*  FAIR      66  63  88 N5        30.11S
HR EXEC AP*    FAIR      59  58  96 CALM      30.10S
FRANKLIN*      FAIR      64  63  98 CALM      30.11S FOG
US460-WAKEFLD  FAIR      64  62  93 CALM      30.11R FOG
$$

VAZ020-022-025-037-045-240800-
WEST CENTRAL AND SOUTHWEST VIRGINIA

CITY           SKY/WX    TMP DP  RH WIND       PRES   REMARKS
STAUNTON*      FAIR      56  55  94 CALM      30.20F
WAYNESBORO*    CLOUDY    60  58  94 CALM      30.19F
HOT SPRINGS VA MOCLDY    57  52  81 E6        30.26S
LYNCHBURG      CLOUDY    67  58  72 NE6       30.15F
DANVILLE       FAIR      69  65  86 NE10      30.10S
SOUTH BOSTON*  PTSUNNY   70  64  80 NE5       30.12S
MARTINSVILLE   MOCLDY    65  62  90 N6        30.15S
ROANOKE        CLOUDY    68  60  75 CALM      30.18R
BLACKSBURG     CLOUDY    65  60  82 E6        30.22S
DUBLIN*        FAIR      62  58  90 CALM      30.20S
MARION*        FAIR      58  58  98 CALM      30.22F
HILLSVILLE*    FAIR      61  57  88 E3        30.19S
RICHLANDS*     FAIR      61  27  27 NE5       30.20F
WISE*          FAIR      61  61 100 CALM      30.21F
ABINGDON*      MOCLDY    66  63  90 E5        30.16F
$$

MDZ021>025-VAZ099-100-240800-
SOUTHERN MARYLAND AND THE DELMARVA PENINSULA

CITY           SKY/WX    TMP DP  RH WIND       PRES   REMARKS
PATUXENT RIVER FAIR      68  60  75 NW9       30.09S
BAY BRIDGE APT FAIR      66  59  77 W5        30.09S
LEONARDTOWN    FAIR      61  55  82 W5        30.11S
DOVER          FAIR      64  56  76 W3        30.07R
GEORGETOWN     FAIR      63  58  83 CALM      30.08R
EASTON         FAIR      62  59  90 CALM      30.12S
CAMBRIDGE      CLEAR     61  59  94 CALM      30.08S
SALISBURY      FAIR      61  59  93 CALM      30.07S
TANGIER        FAIR      72  70  94 NW8       30.08S
OCEAN CITY     FAIR      61  58  90 NW5       30.07S
WALLOPS ISLAND FAIR      65  60  84 MISG      30.07S
ACCOMACK*      FAIR      61  61  99 N3        30.08S
$$

NCZ012>017-030>032-240800-
NORTH CENTRAL AND EASTERN NORTH CAROLINA

CITY           SKY/WX    TMP DP  RH WIND       PRES   REMARKS
ROANOKE RAPIDS CLOUDY    68  68 100 CALM      30.10S
RALEIGH        MOCLDY    71  70  96 SE5       30.08S
ELIZABETH CITY FAIR      66  66 100 W3        30.09R
AHOSKIE*       FAIR      67  67 100 CALM      30.10S
EDENTON*       FAIR      68  67  97 CALM      30.10R
CURRITUCK*     NOT AVBL
KILL DEVIL HLS FAIR      69  68  94 CALM      30.07R
MANTEO         FAIR      70  69  96 NW5       30.08S
CAPE HATTERAS  CLOUDY    71  70  96 W6        30.07F
TARBORO*       NOT AVBL
GOLDSBORO      FAIR      72  70  95 CALM      30.05F
WASHINGTON     CLOUDY    69  68  98 CALM      30.09S
GREENVILLE     CLOUDY    70  70 100 E3        30.10S
NEW BERN       CLOUDY    69  68  96 NE3       30.09S
WILMINGTON     MOCLDY    73  67  81 SW7       30.07S
$$

VAZ048-240800-
ELSEWHERE

CITY           SKY/WX    TMP DP  RH WIND       PRES   REMARKS
HARRISBURG PA  FAIR      62  57  83 NW7       30.10S
BALTIMORE      FAIR      62  57  83 W3        30.09S
ANNAPOLIS        N/A    N/A N/A N/A MISG      30.09S
ANDREWS AFB    FAIR      62  56  81 W5        30.11R
PHILADELPHIA   FAIR      66  54  65 NW8       30.07S
HENDERSON NC   CLOUDY    67  64  87 E10       30.11R
GREENSBORO     FAIR      70  66  87 N6        30.08F
ROCKY MOUNT    FAIR      70  69  97 NE5       30.08S
$$

VAZ100-240800-
MARINE

STATION/POSITION TIME  TEMP    WIND        PRES    WAVE   SWELL
                       AIR SEA DIR/SP/G            HT/PER HT/PER
                 (UTC) (F)     (DEG/KT/KT) (MB)    (FT/S) (FT/S)
BRANDYWINE LGT   0630   69     320/  8/  8 1018.2S
CAPE MAY NJ      0624   67 67   20/  2/  3 1017.3
LEWES DE         0630   67 67  290/  7/  9 1017.9R
15NM E FENWICK I 0650   62 60  290/  4/  6 1017.9F   2/ 8   2/ 8
OCEAN-CITY-INLET 0630   67 65  350/  4/  5 1018.4F
WACHAPREAGUE VA  0630   66 77  270/  1/  3 1018.4S
THOMAS POINT MD  0700   68 68  280/ 10/ 11 1019.8R
GOOSES REEF MD   0700   70     310/ 10/ 12 1019.4
COVE POINT MD    0630   68     320/  7/ 10 1019.5F
SOLOMONS ISLAND  0630   67 71  330/  6/  8 1018.7F
BISHOPS HEAD MD  0630   68 77  320/  5/  6 1019.0S
PINEY POINT MD   0630          340/ 10/ 10   N/A
POTOMAC MD       0700   70 72  310/  8/ 10 1018.3
CAMBRIDGE MD     0630   65 74              1019.6F
LEWISETTA VA     0630   68 75  320/  5/  6 1019.0S
RAPPAHANNOCK LGT 0630          330/ 10/ 12 1019.2F
STINGRAY PT      0700   72 74  360/  8/ 10 1017.9    1
YORK RVR RNG VA  0630   73     340/  9/ 10 1019.4R
YORKTOWN VA      0630   71 76  350/  9/ 10 1018.5R
DOMINION TERM VA 0630   73      CALM  /  2 1019.3R
KIPTOPEKE VA     0630      71   10/  3/  4   N/A
CAPE HENRY VA    0630   72     330/  8/  9   N/A
WILLOUBY STN VA  0630          340/  6/  7   N/A
S CRANEY ISL VA  0630   72     290/  3/  4 1018.7R
CAPE HENRY BUOY  0700      70                N/A     2/ 8
1ST LANDING BUOY 0700   72 71  360/  6/  8 1018.7    1
64NM E OF VA BCH 0650   67 67  330/  6/  8 1018.1R   3/ 6   3/ 6
DUCK PIER NC     0630   72 65  310/  6/  7 1018.0R
44100 DUCK FRF   0645      71                N/A     2/ 7
44056 DUCK FRF   0700      67                N/A     1/ 8
OREGON INLET NC  0630   72 78  270/  4/  6 1018.2S
HATTERAS NC      0630   73 76  280/ 10/ 12 1017.9F
DIAMOND SHLS NC  0700   73 74  280/ 12/ 14 1018.4
CAPE LOOKOUT NC  0700          230/  8/ 11 1018.6F
$$




USA.gov is the U.S. government's official web portal to all federal, state and local government web resources and services.